AKST,Max TemperatureF,Mean TemperatureF,Min TemperatureF,Max Dew PointF,MeanDew PointF,Min DewpointF,Max Humidity, Mean Humidity, Min Humidity, Max Sea Level PressureIn, Mean Sea Level PressureIn, Min Sea Level PressureIn, Max VisibilityMiles, Mean VisibilityMiles, Min VisibilityMiles, Max Wind SpeedMPH, Mean Wind SpeedMPH, Max Gust SpeedMPH,PrecipitationIn, CloudCover, Events, WindDirDegrees
2012-12-1,19,12,1,9,3,-4,87,72,40,29.58,29.52,29.44,10,10,10,7,3,,0.00,0,,178
2012-12-2,16,8,0,9,1,-5,84,72,49,29.44,29.37,29.32,10,10,10,12,3,,0.00,0,,144
2012-12-3,15,12,9,-1,-5,-9,58,47,42,29.57,29.51,29.38,10,10,10,16,10,24,0.00,1,,357
2012-12-4,8,4,-2,-10,-12,-13,72,51,44,29.56,29.52,29.50,10,10,9,14,10,21,0.00,0,,5
2012-12-5,5,0,-6,-7,-9,-12,80,65,55,29.64,29.59,29.53,10,10,10,12,4,,0.00,0,,28
2012-12-6,9,4,0,-2,-4,-8,80,69,56,29.91,29.78,29.65,10,10,8,6,3,,0.00,2,,94
2012-12-7,7,2,-2,1,-4,-8,85,80,75,29.96,29.94,29.91,10,9,2,7,1,,0.00,1,,54
2012-12-8,21,12,3,18,10,-2,93,78,54,29.97,29.57,29.32,10,6,0,15,7,23,0.07,7,Fog-Snow,18
2012-12-9,27,24,21,25,20,17,93,83,75,29.54,29.41,29.31,10,7,2,12,7,,0.01,8,Snow,34
2012-12-10,28,27,26,27,25,24,93,91,86,29.78,29.60,29.54,10,4,1,5,1,,0.01,8,Snow,9
2012-12-11,28,24,19,27,22,16,93,89,84,29.92,29.81,29.63,10,6,1,7,1,,0.02,6,Snow,102
2012-12-12,33,27,21,30,23,19,93,90,85,29.61,29.36,29.27,10,3,0,16,5,22,0.48,8,Fog-Rain-Snow,332
2012-12-13,34,29,24,29,26,21,93,83,75,29.36,29.32,29.28,10,10,10,15,7,22,0.00,7,,206
2012-12-14,26,22,17,23,19,15,93,91,86,29.31,29.23,29.16,10,6,0,6,2,,0.00,8,,338
2012-12-15,17,8,-2,16,2,-6,93,79,67,29.29,29.18,29.15,10,8,0,7,3,,0.00,1,Fog,331
2012-12-16,8,3,-6,0,-5,-11,79,76,61,29.68,29.50,29.31,10,10,8,5,1,,0.00,2,,104
2012-12-17,0,-6,-11,-6,-10,-16,85,79,71,29.80,29.71,29.59,10,6,1,6,2,,0.00,2,Snow,63
2012-12-18,8,0,-7,-1,-5,-12,79,70,58,29.57,29.49,29.44,10,10,8,12,6,,0.00,2,,47
2012-12-19,16,8,1,2,-1,-6,72,59,51,29.88,29.74,29.52,10,10,10,20,6,31,0.00,1,,26
2012-12-20,17,14,10,2,-1,-5,56,50,45,30.12,30.03,29.90,10,10,10,21,17,29,0.00,0,,348
2012-12-21,10,5,0,3,-1,-7,85,78,48,30.11,30.05,29.95,10,10,2,8,4,,0.00,0,,194
2012-12-22,12,2,-8,0,-8,-14,80,68,47,29.93,29.82,29.75,10,10,8,16,4,23,0.00,2,,29
2012-12-23,9,6,3,-6,-7,-9,58,53,46,29.78,29.69,29.62,10,10,9,16,11,21,0.00,1,,15
2012-12-24,25,16,8,21,7,-6,93,67,51,29.61,29.50,29.46,10,10,10,20,11,24,0.00,4,,12
2012-12-25,33,28,24,29,25,20,93,87,72,29.66,29.58,29.47,10,6,0,18,6,26,0.01,6,Fog-Snow,317
2012-12-26,26,21,16,19,17,12,88,81,75,29.64,29.51,29.37,10,10,10,7,3,,0.00,5,,5
2012-12-27,27,22,17,20,17,13,85,80,69,29.44,29.37,29.33,10,10,10,8,3,,0.00,4,,23
2012-12-28,28,24,21,21,19,17,88,78,72,29.60,29.54,29.46,10,10,10,10,2,,0.00,5,,346
2012-12-29,45,36,27,30,27,21,82,67,48,29.51,29.40,29.28,10,10,10,16,8,29,0.00,4,Rain,208
2012-12-30,46,40,33,34,30,26,82,68,50,29.41,29.15,28.98,10,10,10,15,6,24,0.00,4,Rain,286
2012-12-31,42,35,28,29,25,22,85,68,45,29.78,29.66,29.44,10,10,10,14,7,20,0.00,2,,238